www.pogodaiklimat.ru

Погода и климат >> Архив погоды >> Россия >> Краснодарский край >> Геленджик


АРХИВ ПОГОДЫ в Геленджике

Время (UTC), дата Ветер
(напр.,м/с)
 
Видим.   Явления Облачность Т
(С)
Тd
(С)
f
(%)
Тe
(С)
Тes
(С)
Комфортность P
(гПа)
Po
(гПа)
Тmin
(С)
Tmax
(С)
R
(мм)
R24
(мм)
S
(см)
00 17.01 СВ 2 10 км 8/0
[Ac trans Ci fib]
+1.5 -5.9 58 -1 -1 по сезону 1012.1 1010.1
03 17.01 СВ 3 10 км 8/3 1000 м
[Sc Ac cast Ci fib]
+3.1 -6.3 50 -0 -0 по сезону 1013.0 1011.0 +0.9
06 17.01 СВ 3 50 км 4/3 600 м
[Sc Ac trans Cc]
+3.5 -5.3 53 0 +1 по сезону 1014.8 1012.8
09 17.01 В 1 50 км ясно +7.6 -2.4 49 +7 +12 тепло 1016.3 1014.3
12 17.01 ЮВ 2 50 км 3/3 600 м
[Cu Sc]
+8.2 0.0 56 +7 +8 тепло 1016.9 1014.9
15 17.01 СЗ 1 10 км 10/8 600 м
[Cb cap Ac trans Cc]
+5.9 -0.7 63 +5 +5 тепло 1019.2 1017.2 +8.4
18 17.01 В 2 10 км ясно +4.2 -2.2 63 +2 +2 по сезону 1020.7 1018.7
21 17.01 В 1 10 км 6/6 1000 м
[Sc]
+4.1 -1.8 65 +3 +3 тепло 1021.7 1019.7
00 18.01 ЮВ 2 10 км 6/6 600 м
[Sc]
+6.4 +0.7 67 +4 +4 тепло 1022.2 1020.2
03 18.01 ЮВ 2 10 км 3/3 600 м
[Sc]
+7.0 +1.0 66 +5 +5 тепло 1021.6 1019.6 +3.4
06 18.01 ЮВ 3 50 км 10/10 1000 м
[Cb cap]
+7.6 +2.2 69 +5 +5 тепло 1022.5 1020.5
09 18.01 ЮВ 3 50 км 10/10 1000 м
[Sc diur, vesp]
+8.0 +1.9 65 +6 +6 тепло 1023.0 1021.0
12 18.01 ЮВ 4 50 км 10/10 1000 м
[Sc]
+8.1 +1.3 62 +5 +5 тепло 1021.7 1019.7
15 18.01 ЮВ 4
{10}
10 км 10/10 600 м
[Cb cap]
+7.8 +1.8 66 +5 +5 тепло 1021.9 1019.9 +8.7
18 18.01 ЮВ 5
{10}
10 км 3/3 600 м
[Sc]
+7.9 +1.1 62 +4 +4 тепло 1021.6 1019.6
21 18.01 ЮВ 4
{10}
10 км 3/3 600 м
[Sc]
+7.9 +1.0 62 +5 +5 тепло 1021.8 1019.8
00 19.01 ЮВ 3 10 км 3/3 600 м
[Sc]
+8.1 +1.7 64 +6 +6 тепло 1020.9 1018.9
03 19.01 ЮВ 4 10 км 6/6 600 м
[Sc]
+8.2 +2.0 65 +5 +5 тепло 1020.0 1018.0 +7.7
06 19.01 ЮВ 4 50 км 10/10 600 м
[Cb cap]
+8.4 +2.5 66 +6 +6 тепло 1020.2 1018.2
09 19.01 ЮВ 5-11
{11}
50 км 10/10 600 м
[Cb cap]
+8.8 +3.2 68 +6 +6 тепло 1020.2 1018.2
12 19.01 ЮВ 5-11
{11}
50 км 10/10 600 м
[Cb cap]
+8.9 +3.9 71 +6 +6 тепло 1019.5 1017.5
15 19.01 ЮВ 4
{12}
10 км слаб. ливневой дождь 10/10 600 м
[Cb cap]
+8.3 +5.2 81 +5 +5 тепло 1020.4 1018.4 +9.0 0.6
18 19.01 ЮВ 3 10 км {ливн. осадки} 10/10 600 м
[Cb cap]
+9.2 +6.6 84 +7 +7 тепло 1020.3 1018.3
21 19.01 СЗ 1 10 км 10/10 600 м
[Cb cap]
+7.3 +4.9 85 +6 +6 тепло 1021.9 1019.9
00 20.01 С 1 10 км 10/10 600 м
[Cb cap]
+5.6 +2.6 81 +4 +4 тепло 1022.9 1020.9
03 20.01 СВ 3 10 км 10/6 600 м
[Sc diur, vesp Ac trans Cc]
+4.2 +0.6 77 +1 +1 по сезону 1023.3 1021.3 +4.1 0.5
06 20.01 С 1 20 км 6/4 600 м
[Sc Ac trans Ci fib]
+3.8 +1.5 85 +2 +3 тепло 1024.0 1022.0 +3.0
09 20.01 ЮЗ 1 50 км 8/1 600 м
[Sc Ac cast Ci fib]
+7.8 +3.6 75 +7 +10 тепло 1024.1 1022.1
12 20.01 ЮВ 1 20 км 10/6 600 м
[Sc Ac trans Cs]
+7.7 +3.8 76 +7 +7 тепло 1023.2 1021.2
15 20.01 В 1 10 км 10/4 1000 м
[Sc Ac cast Cs]
+7.6 +2.7 71 +7 +7 тепло 1022.6 1020.6 +8.3
18 20.01 СВ 1 10 км 8/6 600 м
[Sc Ac cast]
+7.0 +3.5 78 +6 +6 тепло 1022.2 1020.2
21 20.01 ЮВ 2 10 км 6/6 1000 м
[Sc]
+9.1 +3.7 69 +8 +8 тепло 1021.6 1019.6
00 21.01 В 2 10 км 6/6 1000 м
[Sc]
+9.1 +5.5 78 +7 +7 тепло 1020.5 1018.5
03 21.01 В 3 10 км 3/0
[Ac cast Ci fib]
+9.0 +5.0 76 +7 +7 тепло 1018.5 1016.5 +6.6
06 21.01 ЮВ 2 20 км 6/3 600 м
[Sc Cc]
+9.7 +5.9 77 +8 +9 тепло 1018.2 1016.2
09 21.01 ЮВ 4
{11}
20 км 10/6 600 м
[Sc Ac trans]
+10.2 +5.5 73 +8 +8 тепло 1017.3 1015.3
12 21.01 ЮВ 5-11
{14}
20 км 10/6 600 м
[Sc Ac und]
+10.2 +5.1 71 +7 +7 тепло 1015.4 1013.4
15 21.01 ЮВ 4
{12}
10 км слаб. ливневой дождь 10/6 300 м
[Cb cap Ac und]
+9.5 +5.6 77 +7 +7 тепло 1015.2 1013.2 +10.6 0.0
18 21.01 С 2 10 км слаб. ливневой дождь 10/10 300 м
[Cb cap]
+9.2 +7.0 86 +7 +7 тепло 1014.9 1012.9
21 21.01 З 1 10 км {ливн. осадки} 10/4 300 м
[Cb cap Ac und]
+8.9 +6.5 85 +8 +8 тепло 1015.7 1013.7
00 22.01 СЗ 1 10 км {ливн. осадки} 10/4 600 м
[Cb cap Ac und]
+6.6 +3.8 82 +6 +6 тепло 1017.0 1015.0
03 22.01 Ю 1 10 км 10/3 300 м
[St Ac und]
+5.4 +3.0 85 +4 +4 тепло 1017.4 1015.4 +5.1 2
06 22.01 С 3 10 км 10/10 600 м
[Sc]
+4.3 +1.2 80 +1 +1 тепло 1018.8 1016.8 +4.2
09 22.01 С 4 20 км 9/9 600 м
[Sc]
+3.8 -0.2 75 -1 -0 по сезону 1020.4 1018.4
12 22.01 С 1 50 км 8/8 600 м
[Sc]
+4.9 -0.5 68 +4 +4 тепло 1020.5 1018.5
15 22.01 СВ 2 10 км 6/6 600 м
[Sc]
+2.1 -1.4 78 -1 -1 по сезону 1020.9 1018.9 +5.5
18 22.01 СВ 3 10 км 10/10 600 м
[Sc]
+2.7 -1.1 76 -1 -1 по сезону 1020.8 1018.8
21 22.01 СВ 3 10 км 10/10 600 м
[Sc]
+2.7 -1.4 74 -1 -1 по сезону 1020.5 1018.5
00 23.01 В 2 10 км 10/10 600 м
[Sc]
+4.5 +0.3 74 +2 +2 тепло 1019.3 1017.3
03 23.01 В 2 10 км 10/10 1000 м
[Sc]
+5.4 +0.5 71 +3 +3 тепло 1017.6 1015.6 +1.7
06 23.01 СВ 1 20 км 10/10 1000 м
[Sc]
+6.4 +0.8 67 +6 +6 тепло 1017.6 1015.6
09 23.01 ЮВ 3 20 км 10/10 1000 м
[Sc]
+9.3 +4.9 74 +7 +7 тепло 1016.6 1014.6
12 23.01 В 3
{10}
20 км 9/8 600 м
[Sc Ac As]
+9.8 +5.3 74 +8 +8 тепло 1014.6 1012.6
15 23.01 В 2
{10}
10 км 6/3 600 м
[Sc Ac trans Ci fib]
+9.6 +5.7 77 +8 +8 тепло 1014.1 1012.1 +10.3
18 23.01 В 2 10 км 4/0
[Ci fib]
+10.0 +6.3 78 +9 +9 тепло 1013.7 1011.7

 

Местоположение метеостанции Геленджик (Краснодарский край, Россия): широта 44.57 долгота 38.08 высота над уровнем моря 15 м.

В архиве по умолчанию представлена погода в Геленджике за последнюю неделю. Архивные данные за месяц целиком и за предыдущие месяцы, начиная с января 2011 года, Вы можете получить, выбрав интересующий диапазон дат из раскрывающегося списка и нажав кнопку "Ввод!".


*Определитесь, кто Вы:
робот инопланетянин человек

Внимание! Время в таблицах - всемирное. Для получения местного времени необходимо прибавить поправку, которая равна 3 ч.

Смотрите также архив погоды в соседних городах и на ближайших метеорологических станциях:

Погода в Новороссийске (Краснодарский край, Россия) (25 км)
Погода в Крымске (Краснодарский край, Россия) (39 км)
Погода в Джубге (Краснодарский край, Россия) (57 км)
Погода в Анапе (Краснодарский край, Россия) (72 км)
Погода в Славянске-на-Кубани (Краснодарский край, Россия) (79 км)
Погода в Горячем Ключе (Краснодарский край, Россия) (81 км)
Погода в Краснодаре (Краснодарский край, Россия) (92 км)
Погода в Туапсе (Краснодарский край, Россия) (95 км)
Погода в Горном (Краснодарский край, Россия) (100 км)
Погода в Темрюке (Краснодарский край, Россия) (100 км)

Пояснения к столбцам:

Ветер - указаны скорость ветра в м/с - средняя за 10 мин, порывы в срок и между сроками (в фигурных скобках) и направление, откуда дует ветер: С - северный, СВ - северо-восточный, В - восточный, ЮВ - юго-восточный, Ю - южный, ЮЗ - юго-западный, З - западный, СЗ - северо-западный.
Видимость - горизонтальная дальность видимости в метрах или километрах. При видимости от 1 до 10 км при отсутствии осадков обычно наблюдается дымка, при ухудшении видимости до 1 км и менее - туман. В сухую погоду видимость может ухудшаться дымом, пылью или мглою.
Явления - указаны атмосферные явления, наблюдавшиеся в срок или в последний час перед сроком; фигурными скобками обозначены явления, наблюдавшиеся между сроками (за 1-3 часа до срока); квадратными скобками обозначены град или гололедные отложения с указанием их диаметра в мм.
Облачность - указаны через наклонную черту общая и нижняя облачность в баллах и высота нижней границы облаков в метрах; квадратными скобками обозначены формы облаков: Ci - перистые, Cs - перисто-слоистые, Cc - перисто-кучевые, Ac - высококучевые, As - высокослоистые, Sc - слоисто-кучевые, Ns - слоисто-дождевые, Cu - кучевые, Cb - кучево-дождевые. Подробнее классификацию облаков см. в Атласе облаков (PDF).
T - Температура воздуха - температура, измеренная на высоте 2 м над землей.
Td - Температура точки росы - температура, при понижении до которой содержащийся в воздухе водяной пар достигнет насыщения.
f - Относительная влажность воздуха - влажноcть воздуха, измеренная на высоте 2 м над землей.
Te - Эффективная температура - температура, которую ощущает одетый по сезону человек в тени. Характеристика душности погоды. При расчете учитывается влияние влажности воздуха и скорости ветра на теплоощущения человека.
Tes - Эффективная температура на солнце - температура, которую ощущает человек, с поправкой на солнечный нагрев. Характеристика знойности погоды. Зависит от высоты солнца над горизонтом, облачности и скорости ветра. Ночью, в пасмурную погоду, а также при ветре 12 м/с и более поправка равна нулю.
P - Атмосферное давление - приведенное к уровню моря атмосферное давление.
Po - Атмосферное давление - измеренное на уровне метеостанции атмосферное давление.
Tmin - Минимальная температура - минимум температуры воздуха на высоте 2 м над землей.
Tmax - Максимальная температура - максимум температуры воздуха на высоте 2 м над землей.
R - Количество осадков - Количество выпавших осадков за период времени, мм. При наведении курсора мыши на число - период времени, за который выпало указанное количество осадков.
R24 - Количество осадков - Количество выпавших осадков за 24 часа, мм.
S - Снежный покров - Высота снежного покрова, см. При наведении курсора мыши на число - состояние снежного покрова и степень покрытия местности в баллах.